Location: USNO
(38.9242°N, 77.0663°W)
Time: 16:28:24
(UTC-04:00)

ISS - Pass Details

Date: 09 October 2017
Orbit: 401 x 408 km, 51.6° (Epoch: 19 October)

Event Time Altitude Azimuth Distance (km) Brightness Sun altitude
Rises 18:57:44 0° 315° (NW) 2,325 0.7 -4.6°
Reaches altitude 10° 19:01:41 10° 2° (N) 1,466 -1.1 -5.4°
Maximum altitude 19:02:05 10° 9° (N) 1,457 -1.1 -5.5°
Drops below altitude 10° 19:02:32 10° 17° (NNE) 1,470 -1.2 -5.5°
Enters shadow 19:05:08 - 53° (NE) 1,938 -0.9 -6.0°
